QPF
0.00 0.00 0.00 0.00 0.00 0.00 0.00 0.00 0.00 0.00 0.00 0.01 0.01 0.01 0.01 0.01 0.01 0.01 0.01 0.02 0.02 0.02 0.02 0.02 0.01 0.01 0.00 0.00 0.00 0.00 0.00 0.00 0.00 0.00 0.01 0.01 0.01 0.01 0.02 0.02 0.02 0.01 0.01 0.02
0.00 0.00 0.00 0.00 0.00 0.00 0.00 0.00 0.00 0.00 0.00 0.00 0.01 0.01 0.01 0.01 0.01 0.01 0.01 0.01 0.02 0.02 0.01 0.01 0.02 0.01 0.00 0.00 0.00 0.00 0.00 0.00 0.00 0.00 0.00 0.00 0.00 0.01 0.01 0.02 0.02 0.01 0.00 0.01
0.00 0.00 0.00 0.00 0.00 0.00 0.00 0.00 0.00 0.00 0.00 0.00 0.00 0.00 0.00 0.01 0.01 0.00 0.01 0.01 0.02 0.01 0.01 0.01 0.01 0.00 0.00 0.00 0.00 0.00 0.00 0.00 0.00 0.00 0.01 0.00 0.00 0.00 0.01 0.01 0.01 0.01 0.00 0.00
0.00 0.00 0.00 0.00 0.00 0.00 0.00 0.00 0.00 0.00 0.00 0.00 0.00 0.00 0.00 0.01 0.01 0.00 0.01 0.00 0.01 0.01 0.01 0.01 0.01 0.00 0.00 0.00 0.00 0.00 0.00 0.00 0.01 0.01 0.00 0.00 0.00 0.00 0.00 0.01 0.01 0.01 0.00 0.00
0.00 0.00 0.00 0.00 0.00 0.00 0.00 0.00 0.00 0.00 0.00 0.00 0.00 0.00 0.00 0.01 0.01 0.00 0.00 0.00 0.00 0.00 0.00 0.00 0.01 0.01 0.00 0.00 0.00 0.00 0.01 0.00 0.00 0.00 0.00 0.00 0.00 0.00 0.00 0.01 0.01 0.01 0.01 0.01
0.00 0.00 0.00 0.00 0.00 0.00 0.00 0.00 0.00 0.00 0.00 0.00 0.00 0.00 0.00 0.00 0.00 0.00 0.00 0.00 0.00 0.00 0.00 0.00 0.01 0.01 0.00 0.00 0.00 0.00 0.00 0.00 0.00 0.00 0.00 0.00 0.01 0.00 0.00 0.01 0.01 0.01 0.01 0.01
0.00 0.00 0.00 0.00 0.00 0.00 0.00 0.00 0.00 0.00 0.00 0.00 0.00 0.00 0.00 0.00 0.00 0.00 0.00 0.00 0.00 0.00 0.00 0.00 0.01 0.02 0.00 0.00 0.00 0.00 0.00 0.00 0.00 0.00 0.00 0.00 0.00 0.01 0.01 0.01 0.01 0.01 0.01 0.01
0.00 0.00 0.00 0.00 0.00 0.00 0.00 0.00 0.00 0.00 0.00 0.00 0.00 0.00 0.00 0.00 0.00 0.00 0.00 0.00 0.01 0.01 0.01 0.01 0.01 0.02 0.01 0.01 0.00 0.00 0.00 0.00 0.00 0.00 0.00 0.01 0.01 0.02 0.01 0.01 0.01 0.01 0.00 0.00
0.00 0.00 0.00 0.00 0.00 0.00 0.00 0.00 0.00 0.00 0.00 0.00 0.00 0.00 0.00 0.00 0.00 0.00 0.00 0.00 0.01 0.01 0.01 0.01 0.01 0.01 0.01 0.01 0.01 0.00 0.00 0.00 0.00 0.01 0.01 0.01 0.01 0.02 0.01 0.01 0.01 0.01 0.01 0.01
0.00 0.00 0.00 0.00 0.00 0.00 0.00 0.00 0.00 0.00 0.00 0.00 0.00 0.00 0.00 0.00 0.00 0.00 0.00 0.00 0.00 0.00 0.01 0.01 0.01 0.02 0.03 0.01 0.01 0.02 0.01 0.01 0.00 0.00 0.01 0.01 0.02 0.01 0.02 0.02 0.01 0.01 0.01 0.00
0.00 0.00 0.00 0.00 0.00 0.00 0.00 0.00 0.00 0.00 0.00 0.00 0.00 0.00 0.00 0.00 0.00 0.00 0.00 0.00 0.00 0.00 0.00 0.00 0.01 0.02 0.04 0.03 0.01 0.01 0.02 0.02 0.01 0.01 0.02 0.02 0.03 0.03 0.02 0.02 0.01 0.01 0.01 0.01
0.00 0.00 0.00 0.00 0.00 0.00 0.00 0.00 0.00 0.00 0.00 0.00 0.00 0.00 0.00 0.00 0.00 0.00 0.00 0.00 0.00 0.00 0.00 0.00 0.00 0.02 0.04 0.03 0.03 0.02 0.03 0.03 0.02 0.03 0.03 0.03 0.04 0.03 0.02 0.02 0.02 0.02 0.02 0.02
0.00 0.00 0.00 0.00 0.00 0.00 0.00 0.00 0.00 0.00 0.00 0.00 0.00 0.00 0.00 0.00 0.00 0.00 0.00 0.00 0.00 0.00 0.00 0.00 0.00 0.01 0.03 0.02 0.02 0.03 0.05 0.05 0.04 0.05 0.05 0.04 0.04 0.04 0.04 0.05 0.05 0.06 0.05 0.04
0.00 0.00 0.00 0.00 0.00 0.00 0.00 0.00 0.00 0.00 0.00 0.00 0.00 0.00 0.00 0.00 0.00 0.00 0.00 0.00 0.00 0.00 0.00 0.00 0.00 0.01 0.01 0.02 0.02 0.05 0.07 0.09 0.07 0.05 0.05 0.05 0.05 0.04 0.03 0.03 0.04 0.04 0.05 0.06
0.00 0.00 0.00 0.00 0.00 0.00 0.00 0.00 0.00 0.00 0.00 0.00 0.00 0.00 0.00 0.00 0.00 0.00 0.00 0.00 0.00 0.00 0.00 0.00 0.00 0.01 0.01 0.01 0.03 0.04 0.07 0.09 0.09 0.07 0.05 0.04 0.04 0.05 0.04 0.05 0.04 0.04 0.05 0.04
0.00 0.00 0.00 0.00 0.00 0.00 0.00 0.00 0.00 0.00 0.00 0.00 0.00 0.00 0.00 0.00 0.00 0.01 0.01 0.01 0.01 0.01 0.00 0.00 0.00 0.01 0.02 0.03 0.04 0.05 0.05 0.06 0.09 0.11 0.08 0.05 0.04 0.04 0.04 0.04 0.04 0.05 0.06 0.06
0.00 0.00 0.00 0.00 0.00 0.00 0.00 0.00 0.00 0.00 0.00 0.00 0.00 0.00 0.00 0.00 0.01 0.01 0.01 0.01 0.01 0.00 0.01 0.01 0.01 0.03 0.04 0.04 0.05 0.06 0.06 0.07 0.07 0.07 0.07 0.06 0.05 0.04 0.04 0.03 0.03 0.05 0.06 0.06
0.00 0.00 0.00 0.00 0.00 0.00 0.00 0.00 0.00 0.00 0.00 0.00 0.00 0.00 0.01 0.01 0.01 0.01 0.01 0.01 0.00 0.00 0.01 0.02 0.03 0.03 0.04 0.05 0.07 0.09 0.09 0.08 0.07 0.07 0.07 0.07 0.05 0.05 0.05 0.05 0.05 0.06 0.07 0.07
0.00 0.00 0.00 0.00 0.00 0.00 0.00 0.00 0.00 0.00 0.00 0.00 0.00 0.01 0.01 0.01 0.02 0.02 0.02 0.01 0.00 0.01 0.01 0.03 0.04 0.05 0.06 0.06 0.06 0.06 0.07 0.08 0.09 0.09 0.08 0.06 0.05 0.05 0.05 0.05 0.05 0.05 0.07 0.08
0.00 0.00 0.00 0.00 0.00 0.00 0.00 0.00 0.00 0.00 0.01 0.00 0.01 0.01 0.01 0.02 0.01 0.01 0.00 0.01 0.01 0.02 0.03 0.04 0.05 0.05 0.06 0.06 0.05 0.05 0.06 0.08 0.08 0.08 0.09 0.09 0.08 0.07 0.07 0.07 0.07 0.07 0.09 0.10
0.00 0.00 0.00 0.00 0.00 0.00 0.00 0.00 0.00 0.01 0.01 0.01 0.01 0.01 0.01 0.01 0.01 0.01 0.01 0.02 0.02 0.03 0.04 0.05 0.05 0.04 0.04 0.04 0.05 0.05 0.05 0.09 0.12 0.11 0.11 0.13 0.11 0.10 0.09 0.08 0.08 0.10 0.11 0.12
0.00 0.00 0.00 0.00 0.00 0.00 0.00 0.00 0.00 0.00 0.00 0.01 0.01 0.01 0.01 0.01 0.01 0.02 0.03 0.03 0.04 0.05 0.04 0.03 0.04 0.04 0.06 0.06 0.06 0.06 0.06 0.06 0.08 0.10 0.12 0.14 0.16 0.12 0.09 0.08 0.06 0.06 0.06 0.08
0.00 0.01 0.01 0.01 0.00 0.00 0.00 0.00 0.00 0.00 0.01 0.01 0.01 0.00 0.01 0.01 0.01 0.02 0.03 0.03 0.03 0.06 0.08 0.04 0.04 0.04 0.06 0.06 0.07 0.08 0.10 0.08 0.05 0.05 0.07 0.10 0.14 0.11 0.09 0.08 0.08 0.08 0.06 0.05
0.01 0.01 0.01 0.01 0.01 0.00 0.00 0.00 0.00 0.01 0.01 0.01 0.01 0.01 0.01 0.01 0.01 0.01 0.01 0.02 0.02 0.02 0.04 0.04 0.04 0.07 0.09 0.08 0.08 0.08 0.09 0.10 0.09 0.06 0.06 0.07 0.08 0.09 0.09 0.07 0.05 0.05 0.05 0.04
0.01 0.01 0.01 0.01 0.01 0.01 0.01 0.01 0.01 0.01 0.02 0.02 0.02 0.02 0.02 0.01 0.01 0.01 0.02 0.02 0.02 0.02 0.02 0.03 0.03 0.07 0.10 0.09 0.09 0.09 0.08 0.09 0.10 0.08 0.06 0.05 0.06 0.07 0.08 0.07 0.06 0.04 0.03 0.03
0.01 0.01 0.01 0.01 0.01 0.01 0.01 0.01 0.01 0.01 0.02 0.03 0.05 0.04 0.03 0.03 0.02 0.01 0.02 0.01 0.01 0.01 0.01 0.01 0.02 0.03 0.04 0.05 0.06 0.08 0.07 0.05 0.05 0.06 0.05 0.05 0.05 0.05 0.05 0.05 0.05 0.05 0.04 0.04
MSLP
1008.61 1009.36 1009.90 1010.20 1010.32 1010.30 1010.22 1010.16 1010.14 1010.20 1010.30 1010.42 1010.49 1010.49 1010.39 1010.21 1009.97 1009.73 1009.54 1009.45 1009.47 1009.61 1009.86 1010.21 1010.61 1011.04 1011.50 1011.97 1012.46 1012.98 1013.52 1014.07 1014.61 1015.11 1015.54 1015.87 1016.08 1016.19 1016.21 1016.17 1016.11 1016.07 1016.05 1016.07
1008.83 1009.44 1009.85 1010.07 1010.17 1010.19 1010.22 1010.30 1010.44 1010.61 1010.79 1010.90 1010.90 1010.76 1010.48 1010.10 1009.68 1009.30 1009.02 1008.90 1008.94 1009.14 1009.47 1009.89 1010.35 1010.82 1011.29 1011.76 1012.24 1012.75 1013.29 1013.87 1014.46 1015.02 1015.51 1015.90 1016.16 1016.29 1016.31 1016.26 1016.18 1016.11 1016.08 1016.09
1008.80 1009.25 1009.53 1009.69 1009.79 1009.90 1010.08 1010.35 1010.68 1011.01 1011.28 1011.39 1011.31 1011.02 1010.54 1009.94 1009.32 1008.78 1008.39 1008.22 1008.27 1008.53 1008.95 1009.46 1010.00 1010.53 1011.03 1011.51 1011.99 1012.50 1013.06 1013.66 1014.28 1014.89 1015.44 1015.88 1016.20 1016.36 1016.41 1016.37 1016.28 1016.20 1016.15 1016.15
1008.56 1008.85 1009.01 1009.12 1009.26 1009.50 1009.87 1010.36 1010.90 1011.41 1011.78 1011.91 1011.76 1011.32 1010.63 1009.80 1008.96 1008.23 1007.72 1007.49 1007.54 1007.85 1008.35 1008.95 1009.57 1010.17 1010.72 1011.22 1011.71 1012.22 1012.78 1013.40 1014.05 1014.70 1015.30 1015.80 1016.16 1016.38 1016.46 1016.44 1016.37 1016.29 1016.25 1016.25
1008.21 1008.33 1008.38 1008.47 1008.67 1009.06 1009.63 1010.35 1011.13 1011.82 1012.29 1012.45 1012.23 1011.64 1010.76 1009.71 1008.65 1007.74 1007.10 1006.79 1006.82 1007.16 1007.72 1008.39 1009.09 1009.75 1010.35 1010.88 1011.38 1011.90 1012.46 1013.08 1013.75 1014.43 1015.06 1015.61 1016.03 1016.29 1016.42 1016.45 1016.41 1016.37 1016.34 1016.35
1007.83 1007.80 1007.76 1007.84 1008.12 1008.65 1009.42 1010.36 1011.34 1012.19 1012.76 1012.94 1012.66 1011.95 1010.90 1009.66 1008.42 1007.34 1006.57 1006.18 1006.19 1006.53 1007.12 1007.85 1008.61 1009.31 1009.94 1010.49 1011.00 1011.51 1012.07 1012.68 1013.36 1014.05 1014.72 1015.30 1015.77 1016.09 1016.28 1016.36 1016.37 1016.37 1016.38 1016.41
1007.49 1007.34 1007.24 1007.32 1007.66 1008.32 1009.26 1010.38 1011.51 1012.49 1013.13 1013.32 1013.00 1012.19 1011.02 1009.63 1008.25 1007.05 1006.18 1005.72 1005.69 1006.02 1006.62 1007.37 1008.15 1008.88 1009.53 1010.08 1010.59 1011.08 1011.62 1012.23 1012.89 1013.59 1014.27 1014.89 1015.40 1015.77 1016.02 1016.15 1016.23 1016.27 1016.32 1016.39
1007.25 1007.00 1006.86 1006.95 1007.35 1008.09 1009.14 1010.37 1011.60 1012.64 1013.32 1013.50 1013.15 1012.28 1011.03 1009.57 1008.11 1006.85 1005.92 1005.42 1005.36 1005.67 1006.26 1007.00 1007.77 1008.49 1009.13 1009.67 1010.16 1010.63 1011.15 1011.73 1012.39 1013.08 1013.77 1014.40 1014.94 1015.36 1015.65 1015.84 1015.97 1016.06 1016.16 1016.27
1007.09 1006.80 1006.65 1006.75 1007.18 1007.97 1009.06 1010.32 1011.57 1012.61 1013.27 1013.43 1013.05 1012.17 1010.91 1009.44 1007.98 1006.72 1005.80 1005.29 1005.21 1005.49 1006.05 1006.75 1007.49 1008.17 1008.77 1009.28 1009.74 1010.20 1010.69 1011.26 1011.89 1012.57 1013.26 1013.90 1014.46 1014.90 1015.23 1015.46 1015.62 1015.75 1015.88 1016.03
1007.02 1006.73 1006.60 1006.71 1007.16 1007.94 1009.00 1010.21 1011.39 1012.36 1012.97 1013.09 1012.70 1011.84 1010.62 1009.22 1007.84 1006.65 1005.78 1005.30 1005.22 1005.48 1005.99 1006.63 1007.30 1007.92 1008.47 1008.94 1009.37 1009.80 1010.27 1010.82 1011.44 1012.11 1012.79 1013.43 1013.99 1014.44 1014.78 1015.04 1015.22 1015.38 1015.53 1015.70
1007.02 1006.79 1006.70 1006.84 1007.27 1008.00 1008.96 1010.05 1011.09 1011.93 1012.43 1012.50 1012.11 1011.30 1010.19 1008.93 1007.69 1006.63 1005.86 1005.45 1005.38 1005.62 1006.06 1006.62 1007.20 1007.74 1008.22 1008.64 1009.03 1009.45 1009.91 1010.46 1011.07 1011.73 1012.40 1013.02 1013.58 1014.02 1014.37 1014.62 1014.82 1014.98 1015.15 1015.33
1007.10 1006.96 1006.93 1007.10 1007.50 1008.14 1008.97 1009.87 1010.73 1011.39 1011.76 1011.76 1011.37 1010.64 1009.67 1008.59 1007.54 1006.66 1006.03 1005.70 1005.66 1005.86 1006.23 1006.69 1007.16 1007.60 1008.00 1008.37 1008.73 1009.13 1009.59 1010.14 1010.75 1011.40 1012.06 1012.67 1013.21 1013.64 1013.97 1014.22 1014.41 1014.58 1014.75 1014.94
1007.26 1007.23 1007.29 1007.49 1007.85 1008.38 1009.03 1009.72 1010.35 1010.81 1011.03 1010.95 1010.58 1009.94 1009.14 1008.26 1007.43 1006.75 1006.27 1006.03 1006.01 1006.17 1006.46 1006.80 1007.15 1007.48 1007.80 1008.10 1008.43 1008.81 1009.28 1009.82 1010.43 1011.08 1011.72 1012.31 1012.83 1013.25 1013.57 1013.81 1014.01 1014.18 1014.36 1014.56
1007.53 1007.63 1007.77 1007.99 1008.30 1008.71 1009.17 1009.63 1010.02 1010.27 1010.33 1010.18 1009.82 1009.29 1008.66 1007.99 1007.38 1006.90 1006.56 1006.40 1006.40 1006.51 1006.69 1006.91 1007.14 1007.35 1007.57 1007.81 1008.09 1008.46 1008.92 1009.46 1010.06 1010.69 1011.31 1011.88 1012.37 1012.77 1013.09 1013.34 1013.55 1013.75 1013.96 1014.18
1007.93 1008.15 1008.36 1008.58 1008.84 1009.10 1009.37 1009.60 1009.76 1009.81 1009.72 1009.51 1009.17 1008.74 1008.27 1007.81 1007.41 1007.10 1006.89 1006.80 1006.79 1006.83 1006.91 1007.00 1007.09 1007.18 1007.30 1007.46 1007.70 1008.03 1008.46 1008.98 1009.56 1010.16 1010.75 1011.28 1011.75 1012.14 1012.46 1012.73 1012.98 1013.22 1013.49 1013.77
1008.48 1008.77 1009.02 1009.23 1009.40 1009.52 1009.60 1009.61 1009.56 1009.43 1009.22 1008.95 1008.64 1008.32 1008.00 1007.72 1007.49 1007.33 1007.23 1007.18 1007.15 1007.13 1007.09 1007.05 1007.00 1006.97 1006.98 1007.07 1007.24 1007.52 1007.91 1008.38 1008.91 1009.45 1009.99 1010.48 1010.92 1011.29 1011.63 1011.94 1012.24 1012.56 1012.90 1013.26
1009.13 1009.45 1009.70 1009.85 1009.92 1009.90 1009.80 1009.62 1009.38 1009.10 1008.81 1008.51 1008.24 1008.00 1007.82 1007.69 1007.62 1007.58 1007.55 1007.52 1007.46 1007.36 1007.22 1007.06 1006.89 1006.74 1006.65 1006.64 1006.74 1006.95 1007.26 1007.66 1008.10 1008.57 1009.03 1009.46 1009.85 1010.22 1010.57 1010.92 1011.30 1011.70 1012.14 1012.60
1009.83 1010.12 1010.31 1010.39 1010.34 1010.17 1009.90 1009.56 1009.18 1008.80 1008.44 1008.14 1007.91 1007.77 1007.70 1007.71 1007.75 1007.79 1007.82 1007.79 1007.70 1007.54 1007.31 1007.04 1006.76 1006.51 1006.33 1006.23 1006.24 1006.36 1006.58 1006.87 1007.21 1007.57 1007.92 1008.27 1008.61 1008.95 1009.31 1009.71 1010.16 1010.66 1011.20 1011.76
1010.50 1010.71 1010.80 1010.75 1010.56 1010.26 1009.85 1009.38 1008.91 1008.46 1008.08 1007.80 1007.63 1007.58 1007.62 1007.72 1007.85 1007.96 1008.02 1007.99 1007.87 1007.65 1007.35 1007.00 1006.65 1006.32 1006.05 1005.87 1005.80 1005.82 1005.93 1006.09 1006.30 1006.53 1006.77 1007.02 1007.28 1007.58 1007.94 1008.37 1008.88 1009.46 1010.09 1010.75
1011.05 1011.13 1011.08 1010.89 1010.57 1010.13 1009.62 1009.07 1008.54 1008.07 1007.70 1007.47 1007.38 1007.40 1007.53 1007.72 1007.91 1008.07 1008.15 1008.12 1007.97 1007.71 1007.37 1006.97 1006.56 1006.18 1005.86 1005.61 1005.46 1005.38 1005.37 1005.41 1005.48 1005.57 1005.68 1005.81 1005.99 1006.24 1006.57 1007.01 1007.55 1008.19 1008.89 1009.61
1011.42 1011.34 1011.14 1010.81 1010.36 1009.82 1009.23 1008.63 1008.09 1007.64 1007.32 1007.16 1007.14 1007.24 1007.44 1007.69 1007.93 1008.11 1008.20 1008.16 1008.00 1007.73 1007.37 1006.95 1006.52 1006.11 1005.76 1005.46 1005.24 1005.08 1004.96 1004.88 1004.82 1004.77 1004.74 1004.76 1004.84 1005.02 1005.31 1005.73 1006.27 1006.92 1007.65 1008.42
1011.58 1011.34 1010.99 1010.52 1009.97 1009.35 1008.73 1008.13 1007.61 1007.22 1006.97 1006.87 1006.93 1007.10 1007.36 1007.64 1007.90 1008.10 1008.18 1008.15 1007.98 1007.71 1007.35 1006.94 1006.51 1006.11 1005.74 1005.42 1005.15 1004.92 1004.72 1004.53 1004.34 1004.17 1004.02 1003.93 1003.91 1004.01 1004.24 1004.61 1005.12 1005.76 1006.48 1007.24
1011.53 1011.15 1010.66 1010.10 1009.47 1008.82 1008.19 1007.63 1007.17 1006.84 1006.67 1006.65 1006.77 1007.00 1007.28 1007.59 1007.85 1008.04 1008.12 1008.08 1007.92 1007.66 1007.32 1006.93 1006.53 1006.15 1005.79 1005.46 1005.17 1004.88 1004.61 1004.33 1004.05 1003.78 1003.53 1003.34 1003.24 1003.25 1003.41 1003.71 1004.17 1004.75 1005.42 1006.15
1011.32 1010.82 1010.24 1009.60 1008.94 1008.30 1007.70 1007.20 1006.81 1006.57 1006.47 1006.52 1006.68 1006.94 1007.24 1007.53 1007.79 1007.96 1008.03 1007.99 1007.84 1007.59 1007.29 1006.93 1006.57 1006.22 1005.88 1005.55 1005.24 1004.93 1004.60 1004.26 1003.92 1003.57 1003.25 1002.98 1002.79 1002.73 1002.81 1003.04 1003.41 1003.92 1004.52 1005.18
1010.99 1010.41 1009.78 1009.12 1008.47 1007.86 1007.32 1006.89 1006.58 1006.41 1006.38 1006.47 1006.66 1006.92 1007.21 1007.49 1007.72 1007.87 1007.92 1007.88 1007.74 1007.53 1007.25 1006.95 1006.62 1006.30 1005.98 1005.66 1005.34 1005.00 1004.64 1004.26 1003.87 1003.47 1003.10 1002.77 1002.53 1002.40 1002.41 1002.56 1002.85 1003.26 1003.77 1004.34
1010.61 1010.00 1009.36 1008.71 1008.09 1007.54 1007.07 1006.71 1006.48 1006.37 1006.38 1006.50 1006.70 1006.94 1007.21 1007.45 1007.65 1007.77 1007.82 1007.78 1007.66 1007.47 1007.24 1006.97 1006.68 1006.38 1006.07 1005.76 1005.42 1005.07 1004.69 1004.28 1003.85 1003.43 1003.02 1002.66 1002.38 1002.20 1002.14 1002.22 1002.41 1002.73 1003.14 1003.61
Thickness
5807 5793 5782 5788 5793 5794 5789 5781 5777 5785 5798 5791 5785 5785 5792 5797 5795 5792 5792 5791 5791 5792 5795 5794 5793 5792 5790 5788 5785 5783 5781 5780 5778 5776 5773 5771 5770 5770 5770 5770 5770 5769 5768 5766
5790 5786 5800 5803 5801 5795 5789 5780 5778 5787 5798 5791 5783 5785 5796 5799 5798 5798 5796 5795 5795 5793 5792 5793 5793 5792 5790 5788 5787 5785 5783 5782 5780 5778 5775 5774 5772 5771 5770 5770 5770 5769 5767 5766
5786 5796 5808 5802 5796 5790 5786 5780 5781 5782 5789 5789 5783 5779 5790 5798 5802 5802 5802 5801 5800 5797 5794 5794 5793 5792 5791 5790 5789 5788 5785 5783 5781 5779 5776 5774 5771 5770 5769 5768 5768 5768 5767 5766
5791 5803 5804 5798 5794 5792 5779 5796 5792 5785 5773 5763 5773 5754 5780 5791 5793 5798 5801 5802 5802 5802 5799 5797 5796 5794 5793 5793 5792 5790 5787 5785 5782 5780 5776 5772 5768 5766 5766 5767 5767 5768 5767 5766
5789 5801 5799 5793 5799 5800 5792 5802 5792 5783 5771 5760 5766 5755 5768 5786 5786 5795 5802 5804 5805 5805 5804 5801 5800 5799 5798 5796 5793 5791 5788 5785 5783 5781 5777 5774 5770 5769 5768 5767 5767 5766 5767 5766
5796 5807 5808 5805 5810 5808 5802 5791 5779 5767 5757 5746 5760 5754 5760 5778 5790 5799 5805 5807 5808 5808 5807 5805 5804 5801 5798 5797 5794 5792 5788 5785 5784 5781 5779 5775 5772 5770 5767 5765 5765 5764 5764 5765
5783 5796 5807 5811 5798 5799 5793 5766 5742 5740 5731 5738 5759 5756 5765 5795 5803 5806 5807 5808 5809 5810 5807 5804 5802 5800 5799 5797 5795 5792 5788 5785 5784 5782 5780 5777 5775 5772 5769 5766 5765 5763 5762 5763
5763 5767 5796 5805 5798 5786 5782 5770 5743 5732 5728 5738 5755 5753 5779 5805 5811 5813 5812 5811 5810 5808 5807 5806 5805 5803 5801 5799 5796 5794 5790 5787 5785 5782 5780 5778 5776 5773 5771 5768 5767 5764 5763 5763
5758 5765 5798 5808 5809 5797 5777 5768 5771 5746 5739 5736 5744 5761 5785 5805 5806 5808 5808 5807 5806 5806 5807 5806 5806 5804 5802 5800 5798 5795 5791 5788 5786 5784 5781 5779 5776 5774 5772 5770 5768 5766 5765 5764
5772 5765 5788 5800 5804 5797 5791 5774 5753 5741 5727 5727 5743 5753 5764 5789 5795 5801 5802 5803 5804 5805 5805 5805 5804 5804 5802 5801 5799 5796 5793 5790 5787 5784 5782 5780 5777 5775 5773 5770 5767 5766 5765 5763
5775 5762 5772 5783 5782 5778 5777 5768 5753 5739 5739 5727 5728 5749 5789 5793 5798 5799 5802 5804 5804 5804 5803 5802 5802 5802 5801 5800 5798 5794 5791 5788 5785 5783 5781 5779 5777 5775 5773 5770 5768 5766 5764 5762
5768 5753 5748 5766 5786 5793 5787 5773 5758 5746 5738 5732 5731 5751 5802 5801 5802 5801 5802 5803 5804 5803 5803 5802 5800 5799 5797 5796 5794 5792 5789 5786 5784 5783 5780 5778 5776 5773 5771 5769 5767 5765 5762 5760
5764 5747 5735 5744 5760 5776 5776 5772 5764 5751 5736 5725 5729 5756 5796 5797 5797 5799 5800 5801 5801 5801 5800 5799 5796 5795 5793 5792 5791 5789 5788 5786 5784 5781 5777 5775 5773 5771 5769 5767 5766 5763 5761 5758
5769 5743 5738 5734 5744 5760 5765 5768 5762 5753 5736 5731 5741 5761 5782 5787 5789 5793 5796 5798 5797 5797 5796 5794 5792 5791 5790 5789 5788 5787 5785 5784 5781 5777 5774 5772 5771 5769 5767 5765 5763 5761 5758 5755
5758 5740 5745 5750 5759 5762 5764 5765 5763 5758 5753 5746 5756 5761 5776 5783 5787 5791 5793 5792 5792 5791 5790 5789 5787 5785 5785 5784 5784 5783 5781 5780 5777 5772 5770 5769 5768 5767 5765 5762 5760 5758 5755 5753
5741 5735 5739 5743 5753 5755 5757 5763 5763 5762 5761 5759 5762 5765 5782 5784 5786 5786 5787 5787 5786 5786 5787 5786 5784 5781 5780 5780 5779 5777 5776 5775 5772 5768 5766 5765 5763 5762 5760 5758 5755 5753 5751 5748
5726 5726 5721 5721 5738 5744 5736 5753 5757 5758 5761 5761 5757 5768 5777 5777 5778 5779 5781 5783 5783 5782 5782 5781 5780 5779 5777 5777 5776 5773 5773 5771 5767 5764 5762 5761 5759 5757 5755 5753 5749 5747 5745 5743
5721 5714 5707 5707 5720 5711 5737 5762 5763 5758 5760 5764 5767 5770 5773 5775 5777 5779 5781 5780 5778 5779 5779 5778 5777 5775 5775 5774 5772 5770 5769 5766 5762 5759 5757 5756 5755 5752 5750 5747 5744 5742 5740 5738
5720 5711 5697 5693 5698 5711 5736 5752 5754 5750 5750 5762 5761 5765 5768 5772 5771 5770 5775 5777 5776 5776 5776 5775 5774 5773 5772 5771 5769 5765 5762 5760 5756 5753 5753 5752 5751 5748 5745 5742 5740 5737 5734 5732
5708 5706 5696 5689 5693 5696 5726 5750 5757 5752 5739 5758 5758 5758 5760 5762 5751 5758 5770 5771 5771 5771 5771 5770 5769 5768 5766 5765 5764 5760 5755 5752 5750 5749 5748 5747 5745 5742 5740 5737 5735 5733 5730 5727
5691 5688 5686 5686 5690 5702 5729 5743 5749 5727 5733 5752 5754 5754 5754 5753 5757 5762 5765 5764 5765 5764 5764 5764 5763 5761 5760 5758 5755 5752 5749 5746 5746 5744 5742 5740 5739 5737 5734 5732 5729 5727 5724 5720
5682 5679 5677 5677 5682 5695 5727 5732 5727 5729 5742 5745 5748 5750 5749 5751 5753 5756 5757 5757 5757 5756 5756 5755 5754 5752 5751 5750 5747 5744 5742 5742 5740 5738 5736 5735 5733 5732 5730 5726 5722 5720 5717 5713
5677 5682 5681 5684 5691 5708 5717 5723 5729 5732 5734 5738 5741 5745 5744 5744 5745 5746 5747 5748 5748 5748 5747 5746 5745 5743 5742 5740 5739 5736 5735 5735 5733 5730 5728 5727 5726 5724 5722 5719 5715 5712 5709 5706
5675 5679 5678 5682 5693 5703 5711 5717 5723 5727 5730 5735 5738 5740 5739 5737 5738 5737 5737 5739 5739 5739 5738 5737 5735 5733 5731 5731 5730 5729 5728 5726 5724 5722 5719 5718 5717 5715 5713 5711 5709 5705 5702 5699
5670 5672 5672 5676 5688 5696 5705 5709 5714 5719 5724 5728 5731 5733 5733 5731 5729 5728 5728 5729 5730 5730 5730 5729 5727 5724 5724 5723 5722 5721 5719 5717 5715 5713 5710 5709 5708 5706 5704 5702 5701 5699 5697 5694
5663 5666 5667 5671 5683 5685 5693 5702 5708 5711 5715 5719 5721 5722 5723 5722 5720 5719 5718 5719 5719 5719 5720 5719 5717 5715 5715 5714 5713 5712 5711 5709 5707 5703 5701 5699 5698 5696 5695 5692 5690 5691 5689 5687